^^
Saratoga-Weather Station Historical Data
Daily Summary for March 8, 2020 Units:  English    Metric   Both
Daily Weekly Monthly Yearly Custom
  High: Low: Average:
Temperature: 80.8 °F 47.7 °F 63.1 °F
Dew Point: 53.2 °F 44.2 °F 48.4 °F
Humidity: 90% 32% 63%
Wind Speed: 7mph 0mph 1mph
Wind Gust: 10mph - -
Wind- - SSW
Pressure: 30.3 in 30.2 in -
Precipitation: 0 in    
Historical Graphs
 
 
Tabular Data for March 8, 2020
Time Temperature Dew Point Pressure Wind Wind Speed Wind Gust Humidity Rainfall Rate (Hourly) solar
00:02 55.2 °F 45.7 °F 30.3 in Calm     70% 0 in 0 W/m2
00:07 55 °F 45.5 °F 30.3 in Calm   1 mph 70% 0 in 0 W/m2
00:12 54.9 °F 45.3 °F 30.3 in Calm     70% 0 in 0 W/m2
00:17 54.7 °F 45.5 °F 30.3 in Calm     71% 0 in 0 W/m2
00:22 54.3 °F 45.1 °F 30.3 in Calm   1 mph 71% 0 in 0 W/m2
00:27 54.1 °F 45.3 °F 30.3 in Calm     72% 0 in 0 W/m2
00:32 54.1 °F 45.3 °F 30.3 in Calm     72% 0 in 0 W/m2
00:37 54 °F 45.5 °F 30.3 in Calm   1 mph 73% 0 in 0 W/m2
00:42 53.8 °F 45.3 °F 30.3 in Calm     73% 0 in 0 W/m2
00:47 53.6 °F 45.5 °F 30.3 in Calm     74% 0 in 0 W/m2
00:52 53.4 °F 45.3 °F 30.3 in Calm     74% 0 in 0 W/m2
00:57 53.2 °F 45.1 °F 30.3 in Calm     74% 0 in 0 W/m2
01:02 53.1 °F 45 °F 30.3 in Calm     74% 0 in 0 W/m2
01:07 52.9 °F 45.1 °F 30.3 in Calm     75% 0 in 0 W/m2
01:12 52.7 °F 45 °F 30.3 in Calm     75% 0 in 0 W/m2
01:17 52.5 °F 45.1 °F 30.3 in Calm     76% 0 in 0 W/m2
01:22 52.3 °F 45 °F 30.3 in Calm     76% 0 in 0 W/m2
01:27 52.3 °F 45.3 °F 30.3 in Calm     77% 0 in 0 W/m2
01:32 52.3 °F 45.3 °F 30.3 in Calm     77% 0 in 0 W/m2
01:37 52.3 °F 45.3 °F 30.3 in Calm     77% 0 in 0 W/m2
01:42 52.2 °F 45.1 °F 30.3 in Calm     77% 0 in 0 W/m2
01:47 52.2 °F 45.5 °F 30.3 in Calm     78% 0 in 0 W/m2
01:52 52 °F 45.3 °F 30.3 in Calm     78% 0 in 0 W/m2
01:57 51.6 °F 45 °F 30.3 in Calm     78% 0 in 0 W/m2
02:02 51.6 °F 45 °F 30.3 in Calm     78% 0 in 0 W/m2
02:07 51.4 °F 45.1 °F 30.3 in West 2 mph 2 mph 79% 0 in 0 W/m2
02:12 51.6 °F 45.3 °F 30.3 in Calm   1 mph 79% 0 in 0 W/m2
02:17 51.6 °F 45.3 °F 30.3 in Calm     79% 0 in 0 W/m2
02:22 51.6 °F 45 °F 30.3 in Calm   1 mph 78% 0 in 0 W/m2
02:27 51.4 °F 45.1 °F 30.3 in Calm     79% 0 in 0 W/m2
02:32 51.3 °F 45 °F 30.3 in Calm   1 mph 79% 0 in 0 W/m2
02:37 51.3 °F 45 °F 30.3 in Calm     79% 0 in 0 W/m2
02:42 51.3 °F 45 °F 30.3 in Calm   1 mph 79% 0 in 0 W/m2
02:47 51.1 °F 45.1 °F 30.3 in Calm     80% 0 in 0 W/m2
02:52 50.9 °F 45 °F 30.3 in Calm     80% 0 in 0 W/m2
02:57 50.7 °F 44.8 °F 30.3 in Calm     80% 0 in 0 W/m2
03:02 50.7 °F 44.8 °F 30.3 in Calm     80% 0 in 0 W/m2
03:07 50.5 °F 45 °F 30.3 in Calm     81% 0 in 0 W/m2
03:12 50.4 °F 44.8 °F 30.3 in Calm     81% 0 in 0 W/m2
03:17 50.4 °F 44.8 °F 30.3 in Calm     81% 0 in 0 W/m2
03:22 50.4 °F 44.8 °F 30.3 in Calm     81% 0 in 0 W/m2
03:27 50.4 °F 45.1 °F 30.3 in Calm     82% 0 in 0 W/m2
03:32 50.4 °F 45.1 °F 30.3 in Calm     82% 0 in 0 W/m2
03:37 50.4 °F 45.1 °F 30.3 in West 0.9 mph 2 mph 82% 0 in 0 W/m2
03:42 50.7 °F 45.5 °F 30.3 in Calm     82% 0 in 0 W/m2
03:47 50.9 °F 45.3 °F 30.3 in Calm     81% 0 in 0 W/m2
03:52 50.9 °F 45.3 °F 30.3 in Calm     81% 0 in 0 W/m2
03:57 50.7 °F 45.1 °F 30.3 in Calm     81% 0 in 0 W/m2
04:02 50.5 °F 45 °F 30.3 in Calm     81% 0 in 0 W/m2
04:07 50.4 °F 44.8 °F 30.3 in Calm     81% 0 in 0 W/m2
04:12 50.2 °F 45 °F 30.3 in Calm     82% 0 in 0 W/m2
04:17 49.8 °F 44.6 °F 30.3 in Calm     82% 0 in 0 W/m2
04:22 49.6 °F 44.8 °F 30.3 in Calm     83% 0 in 0 W/m2
04:27 49.6 °F 44.8 °F 30.3 in Calm     83% 0 in 0 W/m2
04:32 49.5 °F 44.8 °F 30.3 in Calm     84% 0 in 0 W/m2
04:37 49.3 °F 44.6 °F 30.3 in Calm     84% 0 in 0 W/m2
04:42 49.1 °F 44.4 °F 30.3 in Calm     84% 0 in 0 W/m2
04:47 48.9 °F 44.6 °F 30.3 in Calm     85% 0 in 0 W/m2
04:52 48.9 °F 44.6 °F 30.3 in Calm     85% 0 in 0 W/m2
04:57 48.7 °F 44.4 °F 30.3 in Calm     85% 0 in 0 W/m2
05:02 48.7 °F 44.4 °F 30.3 in Calm     85% 0 in 0 W/m2
05:07 48.6 °F 44.6 °F 30.3 in Calm     86% 0 in 0 W/m2
05:12 48.6 °F 44.6 °F 30.3 in Calm     86% 0 in 0 W/m2
05:17 48.4 °F 44.4 °F 30.3 in Calm     86% 0 in 0 W/m2
05:22 48.4 °F 44.4 °F 30.3 in Calm     86% 0 in 0 W/m2
05:27 48.2 °F 44.2 °F 30.3 in Calm     86% 0 in 0 W/m2
05:32 48.2 °F 44.2 °F 30.3 in Calm     86% 0 in 0 W/m2
05:37 48 °F 44.4 °F 30.3 in Calm     87% 0 in 0 W/m2
05:42 48 °F 44.6 °F 30.3 in Calm     88% 0 in 0 W/m2
05:47 48 °F 44.6 °F 30.3 in Calm     88% 0 in 0 W/m2
05:52 47.8 °F 44.4 °F 30.3 in Calm     88% 0 in 0 W/m2
05:57 47.8 °F 44.4 °F 30.3 in Calm     88% 0 in 0 W/m2
06:02 47.8 °F 44.4 °F 30.3 in Calm     88% 0 in 0 W/m2
06:07 47.7 °F 44.6 °F 30.3 in Calm     89% 0 in 0 W/m2
06:12 47.7 °F 44.6 °F 30.3 in Calm     89% 0 in 0 W/m2
06:17 47.7 °F 44.6 °F 30.3 in Calm     89% 0 in 0 W/m2
06:22 47.7 °F 44.6 °F 30.3 in Calm     89% 0 in 0 W/m2
06:27 47.8 °F 44.8 °F 30.3 in Calm     89% 0 in 0 W/m2
06:32 47.8 °F 44.8 °F 30.3 in Calm     89% 0 in 0 W/m2
06:42 47.8 °F 44.8 °F 30.3 in Calm     89% 0 in 0 W/m2
06:47 47.8 °F 44.8 °F 30.3 in Calm     89% 0 in 0 W/m2
06:52 47.8 °F 44.8 °F 30.3 in Calm     89% 0 in 0 W/m2
06:57 47.8 °F 44.8 °F 30.3 in Calm     89% 0 in 0 W/m2
07:02 47.8 °F 44.8 °F 30.3 in Calm     89% 0 in 0 W/m2
07:07 47.8 °F 44.8 °F 30.3 in Calm     89% 0 in 5 W/m2
07:12 47.7 °F 44.6 °F 30.3 in Calm     89% 0 in 7 W/m2
07:17 47.7 °F 45 °F 30.3 in Calm     90% 0 in 7 W/m2
07:22 47.8 °F 45 °F 30.3 in Calm     90% 0 in 9 W/m2
07:27 47.8 °F 45 °F 30.3 in Calm     90% 0 in 11 W/m2
07:32 47.8 °F 45 °F 30.3 in Calm     90% 0 in 12 W/m2
07:37 47.8 °F 45 °F 30.3 in Calm     90% 0 in 14 W/m2
07:42 47.8 °F 45 °F 30.3 in Calm     90% 0 in 14 W/m2
07:47 47.8 °F 45 °F 30.3 in Calm     90% 0 in 16 W/m2
07:52 48 °F 45.1 °F 30.3 in Calm     90% 0 in 16 W/m2
07:57 48.4 °F 45.5 °F 30.3 in Calm     90% 0 in 18 W/m2
08:02 48.6 °F 45.7 °F 30.3 in Calm     90% 0 in 18 W/m2
08:07 48.7 °F 45.9 °F 30.3 in Calm     90% 0 in 19 W/m2
08:12 49.1 °F 46.2 °F 30.3 in Calm   1 mph 90% 0 in 21 W/m2
08:17 49.6 °F 46.6 °F 30.3 in Calm   1 mph 89% 0 in 30 W/m2
08:22 50 °F 46.9 °F 30.3 in NE 0.9 mph 2 mph 89% 0 in 65 W/m2
08:27 50.5 °F 46.8 °F 30.3 in NE 2 mph 2 mph 87% 0 in 65 W/m2
08:32 51.3 °F 47.3 °F 30.3 in NE 0.9 mph 2 mph 86% 0 in 118 W/m2
08:37 51.8 °F 47.5 °F 30.3 in NE 2 mph 2 mph 85% 0 in 156 W/m2
08:42 52.3 °F 47.7 °F 30.3 in NE 2 mph 2 mph 84% 0 in 171 W/m2
08:47 52.7 °F 47.7 °F 30.3 in ENE 2 mph 3 mph 83% 0 in 190 W/m2
08:52 53.1 °F 47.7 °F 30.3 in East 2 mph 2 mph 82% 0 in 209 W/m2
08:57 53.4 °F 48 °F 30.3 in East 0.9 mph 1 mph 82% 0 in 178 W/m2
09:02 53.8 °F 48.4 °F 30.3 in NE 0.9 mph 3 mph 82% 0 in 28 W/m2
09:07 54.1 °F 48 °F 30.3 in ENE 0.9 mph 3 mph 80% 0 in 81 W/m2
09:12 54.5 °F 48.4 °F 30.3 in NE 2 mph 2 mph 80% 0 in 262 W/m2
09:17 54.9 °F 48.7 °F 30.3 in NE 0.9 mph 2 mph 80% 0 in 260 W/m2
09:22 55.2 °F 48.7 °F 30.3 in NE 0.9 mph 2 mph 79% 0 in 153 W/m2
09:27 55.8 °F 48.9 °F 30.3 in NE 2 mph 2 mph 78% 0 in 32 W/m2
09:32 56.5 °F 49.3 °F 30.3 in East 2 mph 3 mph 77% 0 in 33 W/m2
09:37 57.4 °F 49.5 °F 30.3 in East 2 mph 2 mph 75% 0 in 33 W/m2
09:42 58.1 °F 49.8 °F 30.3 in ENE 2 mph 3 mph 74% 0 in 33 W/m2
09:47 58.6 °F 49.6 °F 30.3 in ENE 0.9 mph 4 mph 72% 0 in 33 W/m2
09:52 58.8 °F 50.2 °F 30.3 in ENE 0.9 mph 2 mph 73% 0 in 33 W/m2
09:57 59.2 °F 50.2 °F 30.3 in NE 2.9 mph 3 mph 72% 0 in 33 W/m2
10:02 59.5 °F 50.5 °F 30.3 in NNE 0.9 mph 3 mph 72% 0 in 33 W/m2
10:07 60.3 °F 50.9 °F 30.3 in Calm   1 mph 71% 0 in 33 W/m2
10:12 60.6 °F 50.7 °F 30.3 in ENE 2 mph 4 mph 70% 0 in 33 W/m2
10:17 61.2 °F 51.3 °F 30.3 in NE 2 mph 3 mph 70% 0 in 33 W/m2
10:22 61.5 °F 51.3 °F 30.3 in East 0.9 mph 2 mph 69% 0 in 35 W/m2
10:27 62.2 °F 51.6 °F 30.3 in NE 2 mph 2 mph 68% 0 in 35 W/m2
10:32 62.8 °F 51.6 °F 30.3 in ENE 2 mph 4 mph 67% 0 in 35 W/m2
10:38 63.3 °F 51.8 °F 30.3 in Calm   4 mph 66% 0 in 35 W/m2
10:43 63.9 °F 51.8 °F 30.3 in NE 2 mph 4 mph 65% 0 in 35 W/m2
10:48 64.4 °F 52 °F 30.3 in ESE 2.9 mph 6 mph 64% 0 in 37 W/m2
10:53 64.9 °F 52.5 °F 30.3 in Calm   2 mph 64% 0 in 37 W/m2
10:58 65.7 °F 52.3 °F 30.3 in ESE 2.9 mph 4 mph 62% 0 in 40 W/m2
11:03 66 °F 52.2 °F 30.3 in ENE 2 mph 3 mph 61% 0 in 42 W/m2
11:08 66.6 °F 52.2 °F 30.3 in East 2 mph 3 mph 60% 0 in 42 W/m2
11:13 66.9 °F 52.2 °F 30.3 in NNE 2 mph 3 mph 59% 0 in 44 W/m2
11:18 67.3 °F 52.5 °F 30.3 in Calm   1 mph 59% 0 in 46 W/m2
11:23 67.8 °F 52 °F 30.3 in East 0.9 mph 4 mph 57% 0 in 46 W/m2
11:28 68.4 °F 52 °F 30.3 in NE 2 mph 5 mph 56% 0 in 47 W/m2
11:33 68.7 °F 52 °F 30.3 in NNE 2.9 mph 3 mph 55% 0 in 76 W/m2
11:38 69.3 °F 51.4 °F 30.3 in ENE 2 mph 4 mph 53% 0 in 480 W/m2
11:43 69.4 °F 51.6 °F 30.3 in NE 4.9 mph 5 mph 53% 0 in 599 W/m2
11:48 70 °F 51.6 °F 30.3 in NE 4.9 mph 6 mph 52% 0 in 606 W/m2
11:53 70.2 °F 51.8 °F 30.3 in NE 4 mph 4 mph 52% 0 in 619 W/m2
11:58 70.7 °F 52.2 °F 30.3 in North 2 mph 4 mph 52% 0 in 629 W/m2
12:03 71.2 °F 51.6 °F 30.3 in ESE 0.9 mph 4 mph 50% 0 in 636 W/m2
12:08 72 °F 51.8 °F 30.3 in Calm   4 mph 49% 0 in 649 W/m2
12:13 72.3 °F 51.4 °F 30.3 in WNW 2 mph 2 mph 48% 0 in 654 W/m2
12:19 72.7 °F 51.3 °F 30.3 in West 4 mph 4 mph 47% 0 in 661 W/m2
12:24 72 °F 50.7 °F 30.3 in West 4 mph 7 mph 47% 0 in 671 W/m2
12:29 72 °F 50.7 °F 30.3 in NNW 4.9 mph 10 mph 47% 0 in 679 W/m2
12:34 72.1 °F 49.6 °F 30.3 in West 6 mph 7 mph 45% 0 in 682 W/m2
12:39 72.7 °F 49.5 °F 30.3 in NW 2 mph 7 mph 44% 0 in 687 W/m2
12:44 72.9 °F 49.6 °F 30.3 in West 4 mph 7 mph 44% 0 in 691 W/m2
12:49 72.9 °F 49.1 °F 30.3 in SE 4.9 mph 5 mph 43% 0 in 698 W/m2
12:54 72.9 °F 49.1 °F 30.3 in NW 0.9 mph 6 mph 43% 0 in 701 W/m2
12:59 73 °F 49.3 °F 30.3 in WNW 2.9 mph 6 mph 43% 0 in 703 W/m2
13:04 73.2 °F 49.5 °F 30.3 in East 2 mph 2 mph 43% 0 in 708 W/m2
13:09 73.6 °F 49.1 °F 30.3 in SSW 2.9 mph 7 mph 42% 0 in 714 W/m2
13:14 73.6 °F 48.4 °F 30.3 in NNW 0.9 mph 2 mph 41% 0 in 712 W/m2
13:19 73.9 °F 49.5 °F 30.3 in SW 2 mph 4 mph 42% 0 in 717 W/m2
13:24 74.1 °F 49.6 °F 30.3 in West 2 mph 2 mph 42% 0 in 715 W/m2
13:29 74.3 °F 49.1 °F 30.3 in WNW 2.9 mph 4 mph 41% 0 in 717 W/m2
13:34 74.5 °F 49.3 °F 30.3 in NW 2 mph 4 mph 41% 0 in 717 W/m2
13:39 74.5 °F 49.3 °F 30.3 in NW 4.9 mph 7 mph 41% 0 in 719 W/m2
13:44 74.5 °F 48.6 °F 30.3 in NNW 2.9 mph 4 mph 40% 0 in 719 W/m2
13:49 74.5 °F 48.6 °F 30.3 in Calm   2 mph 40% 0 in 717 W/m2
13:54 74.7 °F 48.7 °F 30.3 in WNW 4 mph 10 mph 40% 0 in 717 W/m2
13:59 74.7 °F 48.7 °F 30.3 in Calm   2 mph 40% 0 in 717 W/m2
14:04 75 °F 49.6 °F 30.3 in NW 4.9 mph 5 mph 41% 0 in 715 W/m2
14:09 75 °F 48.4 °F 30.3 in NW 2.9 mph 4 mph 39% 0 in 717 W/m2
14:14 75.4 °F 48.7 °F 30.3 in Calm   2 mph 39% 0 in 715 W/m2
14:19 75.7 °F 48.4 °F 30.3 in NW 0.9 mph 7 mph 38% 0 in 714 W/m2
14:24 75.9 °F 48.6 °F 30.3 in Calm   5 mph 38% 0 in 710 W/m2
14:29 75.7 °F 48.4 °F 30.3 in Calm   3 mph 38% 0 in 710 W/m2
14:34 75.9 °F 49.1 °F 30.3 in West 2 mph 3 mph 39% 0 in 708 W/m2
14:39 76.6 °F 48.4 °F 30.3 in NNW 2.9 mph 3 mph 37% 0 in 698 W/m2
14:44 76.8 °F 47.8 °F 30.3 in NW 2 mph 3 mph 36% 0 in 696 W/m2
14:49 77 °F 48 °F 30.3 in West 2.9 mph 3 mph 36% 0 in 691 W/m2
14:54 76.8 °F 47.8 °F 30.3 in West 4 mph 4 mph 36% 0 in 687 W/m2
14:59 76.5 °F 48.2 °F 30.3 in WNW 2.9 mph 4 mph 37% 0 in 680 W/m2
15:04 76.6 °F 47.7 °F 30.3 in North 0.9 mph 4 mph 36% 0 in 673 W/m2
15:09 76.8 °F 48.6 °F 30.3 in East 4 mph 4 mph 37% 0 in 670 W/m2
15:14 77.4 °F 48.4 °F 30.3 in West 0.9 mph 4 mph 36% 0 in 666 W/m2
15:19 77.5 °F 47.7 °F 30.3 in WNW 2 mph 7 mph 35% 0 in 661 W/m2
15:24 77.2 °F 47.5 °F 30.3 in NW 2.9 mph 9 mph 35% 0 in 652 W/m2
15:29 77 °F 48 °F 30.3 in West 4 mph 7 mph 36% 0 in 642 W/m2
15:34 77.2 °F 48.2 °F 30.3 in NNW 2 mph 9 mph 36% 0 in 635 W/m2
15:39 77.4 °F 48.4 °F 30.3 in WNW 0.9 mph 2 mph 36% 0 in 628 W/m2
15:44 77.7 °F 48.6 °F 30.3 in West 4 mph 6 mph 36% 0 in 622 W/m2
15:49 78.1 °F 48.9 °F 30.3 in NW 0.9 mph 3 mph 36% 0 in 612 W/m2
15:54 78.6 °F 49.5 °F 30.3 in NW 4 mph 6 mph 36% 0 in 605 W/m2
15:59 78.4 °F 48.6 °F 30.3 in North 0.9 mph 7 mph 35% 0 in 598 W/m2
16:04 78.4 °F 48.6 °F 30.3 in Calm   4 mph 35% 0 in 587 W/m2
16:09 78.6 °F 48.7 °F 30.3 in West 0.9 mph 1 mph 35% 0 in 578 W/m2
16:14 79 °F 48.9 °F 30.3 in West 2 mph 7 mph 35% 0 in 571 W/m2
16:19 79 °F 48.9 °F 30.3 in WSW 4.9 mph 7 mph 35% 0 in 563 W/m2
16:24 78.6 °F 47.8 °F 30.3 in NNW 2.9 mph 8 mph 34% 0 in 550 W/m2
16:30 78.6 °F 47.8 °F 30.3 in West 2 mph 6 mph 34% 0 in 550 W/m2
16:35 79 °F 47.5 °F 30.3 in Calm   8 mph 33% 0 in 538 W/m2
16:40 79.3 °F 49.3 °F 30.3 in NNE 0.9 mph 2 mph 35% 0 in 527 W/m2
16:45 79.9 °F 48.2 °F 30.3 in WNW 2 mph 8 mph 33% 0 in 519 W/m2
16:50 79.7 °F 47.3 °F 30.3 in Calm   3 mph 32% 0 in 508 W/m2
16:55 79.5 °F 47.8 °F 30.3 in SW 2 mph 8 mph 33% 0 in 497 W/m2
17:00 79.9 °F 48.9 °F 30.3 in WNW 2.9 mph 5 mph 34% 0 in 483 W/m2
17:05 79.7 °F 48 °F 30.3 in NNW 2 mph 7 mph 33% 0 in 471 W/m2
17:10 79.3 °F 47.7 °F 30.2 in NW 2.9 mph 3 mph 33% 0 in 459 W/m2
17:15 79.3 °F 47.7 °F 30.2 in NNW 2.9 mph 6 mph 33% 0 in 448 W/m2
17:20 79.3 °F 47.7 °F 30.2 in NNW 2 mph 2 mph 33% 0 in 432 W/m2
17:25 79.5 °F 48.7 °F 30.2 in Calm   2 mph 34% 0 in 420 W/m2
17:30 80.2 °F 50.2 °F 30.2 in Calm   2 mph 35% 0 in 411 W/m2
17:35 80.8 °F 48.9 °F 30.2 in West 2.9 mph 4 mph 33% 0 in 394 W/m2
17:40 80.6 °F 48.9 °F 30.2 in SSE 0.9 mph 5 mph 33% 0 in 378 W/m2
17:45 80.4 °F 48.7 °F 30.2 in WSW 0.9 mph 3 mph 33% 0 in 364 W/m2
17:50 80.8 °F 48.9 °F 30.2 in West 2 mph 5 mph 33% 0 in 352 W/m2
17:55 80.8 °F 48.9 °F 30.2 in NW 2.9 mph 6 mph 33% 0 in 339 W/m2
18:00 80.1 °F 49.1 °F 30.2 in WNW 0.9 mph 7 mph 34% 0 in 325 W/m2
18:05 79.9 °F 48.9 °F 30.2 in NW 2 mph 4 mph 34% 0 in 309 W/m2
18:10 80.1 °F 49.1 °F 30.2 in WNW 6 mph 7 mph 34% 0 in 294 W/m2
18:15 79.9 °F 49.8 °F 30.2 in West 2 mph 2 mph 35% 0 in 279 W/m2
18:20 80.1 °F 49.1 °F 30.2 in NNW 7 mph 7 mph 34% 0 in 262 W/m2
18:25 80.2 °F 50.2 °F 30.2 in West 2 mph 2 mph 35% 0 in 248 W/m2
18:30 80.2 °F 50.9 °F 30.2 in West 0.9 mph 3 mph 36% 0 in 232 W/m2
18:35 80.2 °F 50.2 °F 30.2 in West 0.9 mph 2 mph 35% 0 in 218 W/m2
18:40 80.4 °F 51.1 °F 30.2 in Calm   1 mph 36% 0 in 204 W/m2
18:45 80.2 °F 50.9 °F 30.2 in Calm   3 mph 36% 0 in 190 W/m2
18:50 80.1 °F 50.7 °F 30.2 in NNW 0.9 mph 3 mph 36% 0 in 174 W/m2
18:55 79.3 °F 50.7 °F 30.2 in West 2 mph 3 mph 37% 0 in 158 W/m2
19:00 79 °F 51.3 °F 30.2 in Calm   1 mph 38% 0 in 142 W/m2
19:05 78.8 °F 51.1 °F 30.2 in WSW 2 mph 2 mph 38% 0 in 127 W/m2
19:10 78.6 °F 51.6 °F 30.2 in WSW 0.9 mph 2 mph 39% 0 in 107 W/m2
19:15 78.3 °F 52 °F 30.2 in WSW 0.9 mph 2 mph 40% 0 in 42 W/m2
19:20 77.7 °F 52.9 °F 30.2 in Calm     42% 0 in 19 W/m2
19:25 76.8 °F 52.7 °F 30.2 in WSW 0.9 mph 2 mph 43% 0 in 18 W/m2
19:30 75.7 °F 52.3 °F 30.2 in Calm   1 mph 44% 0 in 16 W/m2
19:35 74.8 °F 51.4 °F 30.2 in WSW 2 mph 2 mph 44% 0 in 14 W/m2
19:40 74.1 °F 51.4 °F 30.2 in WSW 0.9 mph 1 mph 45% 0 in 12 W/m2
19:45 73.6 °F 51.4 °F 30.2 in WSW 0.9 mph 2 mph 46% 0 in 11 W/m2
19:50 73 °F 51.1 °F 30.2 in WSW 0.9 mph 3 mph 46% 0 in 9 W/m2
19:56 72.3 °F 50.9 °F 30.2 in Calm   2 mph 47% 0 in 7 W/m2
20:01 72 °F 50.7 °F 30.2 in West 2.9 mph 3 mph 47% 0 in 5 W/m2
20:06 71.6 °F 50.9 °F 30.2 in WSW 0.9 mph 2 mph 48% 0 in 0 W/m2
20:11 71.2 °F 51.1 °F 30.2 in WNW 0.9 mph 2 mph 49% 0 in 0 W/m2
20:16 70.9 °F 50.7 °F 30.2 in WSW 2 mph 2 mph 49% 0 in 0 W/m2
20:21 70.5 °F 50.9 °F 30.2 in Calm   2 mph 50% 0 in 0 W/m2
20:26 70.2 °F 51.3 °F 30.2 in Calm   1 mph 51% 0 in 0 W/m2
20:31 70 °F 51.1 °F 30.2 in Calm   1 mph 51% 0 in 0 W/m2
20:36 69.4 °F 51.6 °F 30.2 in Calm     53% 0 in 0 W/m2
20:41 69.1 °F 51.8 °F 30.2 in Calm     54% 0 in 0 W/m2
20:46 68.5 °F 51.3 °F 30.2 in Calm     54% 0 in 0 W/m2
20:51 68.4 °F 52 °F 30.2 in Calm     56% 0 in 0 W/m2
20:56 67.8 °F 51.6 °F 30.3 in Calm     56% 0 in 0 W/m2
21:01 67.5 °F 51.6 °F 30.3 in Calm     57% 0 in 0 W/m2
21:06 67.1 °F 51.8 °F 30.3 in Calm     58% 0 in 0 W/m2
21:11 66.7 °F 52 °F 30.3 in Calm     59% 0 in 0 W/m2
21:16 66.4 °F 52.2 °F 30.3 in Calm     60% 0 in 0 W/m2
21:21 66 °F 52.2 °F 30.3 in Calm     61% 0 in 0 W/m2
21:26 65.8 °F 52 °F 30.3 in Calm     61% 0 in 0 W/m2
21:31 65.7 °F 52.3 °F 30.3 in Calm     62% 0 in 0 W/m2
21:36 65.5 °F 52.2 °F 30.3 in Calm     62% 0 in 0 W/m2
21:41 65.1 °F 52.2 °F 30.3 in Calm     63% 0 in 0 W/m2
21:47 64.9 °F 52 °F 30.3 in Calm     63% 0 in 0 W/m2
21:52 64.8 °F 52.3 °F 30.3 in Calm     64% 0 in 0 W/m2
21:57 64.4 °F 52.3 °F 30.3 in Calm     65% 0 in 0 W/m2
22:02 64.2 °F 52.2 °F 30.3 in Calm     65% 0 in 0 W/m2
22:07 64 °F 52.5 °F 30.3 in Calm     66% 0 in 0 W/m2
22:12 63.9 °F 52.7 °F 30.3 in Calm     67% 0 in 0 W/m2
22:17 63.7 °F 52.5 °F 30.3 in Calm     67% 0 in 0 W/m2
22:22 63.3 °F 52.2 °F 30.3 in Calm     67% 0 in 0 W/m2
22:27 63.1 °F 52.3 °F 30.3 in Calm     68% 0 in 0 W/m2
22:32 63 °F 52.7 °F 30.3 in Calm     69% 0 in 0 W/m2
22:37 62.8 °F 52.9 °F 30.3 in Calm     70% 0 in 0 W/m2
22:42 62.4 °F 52.5 °F 30.3 in Calm     70% 0 in 0 W/m2
22:47 62.2 °F 52.7 °F 30.3 in Calm     71% 0 in 0 W/m2
22:52 62.2 °F 52.7 °F 30.3 in Calm     71% 0 in 0 W/m2
22:57 62.1 °F 52.9 °F 30.3 in Calm     72% 0 in 0 W/m2
23:02 62.1 °F 52.9 °F 30.3 in Calm     72% 0 in 0 W/m2
23:07 62.1 °F 53.2 °F 30.3 in Calm     73% 0 in 0 W/m2
23:12 61.9 °F 52.7 °F 30.3 in Calm     72% 0 in 0 W/m2
23:17 61.9 °F 52.7 °F 30.3 in Calm     72% 0 in 0 W/m2
23:22 61.5 °F 52.3 °F 30.3 in Calm     72% 0 in 0 W/m2
23:27 61.5 °F 52.7 °F 30.3 in Calm     73% 0 in 0 W/m2
23:32 61.5 °F 52.7 °F 30.3 in Calm     73% 0 in 0 W/m2
23:38 61.3 °F 53.1 °F 30.2 in Calm     74% 0 in 0 W/m2
23:43 61.3 °F 53.1 °F 30.2 in Calm     74% 0 in 0 W/m2
23:48 61.2 °F 53.2 °F 30.3 in Calm     75% 0 in 0 W/m2
23:53 61.2 °F 53.2 °F 30.3 in Calm     75% 0 in 0 W/m2
23:58 61 °F 53.1 °F 30.3 in Calm     75% 0 in 0 W/m2
Juneau County Weather
Compliments of Weather Underground - 4 mb